Time,TemperatureF,DewpointF,PressureIn,WindDirection,WindDirectionDegrees,WindSpeedMPH,WindSpeedGustMPH,Humidity,HourlyPrecipIn,Conditions,Clouds,dailyrainin,SoftwareType,DateUTC
2013-09-18 00:08:00,54.7,50.0,30.23,East,82,0.0,2.0,85,0.00,,,0.00,weatherlink.com 1.10,2013-09-18 04:08:00,
2013-09-18 00:23:00,54.3,50.0,30.22,SSE,151,2.0,2.0,86,0.00,,,0.00,weatherlink.com 1.10,2013-09-18 04:23:00,
2013-09-18 00:38:00,54.4,50.0,30.22,SE,145,0.0,4.0,85,0.00,,,0.00,weatherlink.com 1.10,2013-09-18 04:38:00,
2013-09-18 00:53:00,54.5,50.0,30.21,SSE,162,0.0,4.0,84,0.00,,,0.00,weatherlink.com 1.10,2013-09-18 04:53:00,
2013-09-18 01:08:00,54.5,49.0,30.20,SE,141,0.0,3.0,83,0.00,,,0.00,weatherlink.com 1.10,2013-09-18 05:08:00,
2013-09-18 01:23:00,54.4,49.0,30.20,SSE,148,0.0,3.0,83,0.00,,,0.00,weatherlink.com 1.10,2013-09-18 05:23:00,
2013-09-18 01:38:00,54.0,49.0,30.20,SW,232,0.0,2.0,84,0.00,,,0.00,weatherlink.com 1.10,2013-09-18 05:38:00,
2013-09-18 01:53:00,53.6,49.0,30.20,SSE,152,0.0,1.0,85,0.00,,,0.00,weatherlink.com 1.10,2013-09-18 05:53:00,
2013-09-18 02:08:00,53.3,49.0,30.20,ENE,65,0.0,2.0,85,0.00,,,0.00,weatherlink.com 1.10,2013-09-18 06:08:00,
2013-09-18 02:23:00,52.9,49.0,30.20,SE,134,0.0,0.0,86,0.00,,,0.00,weatherlink.com 1.10,2013-09-18 06:23:00,
2013-09-18 02:38:00,52.2,49.0,30.20,SE,139,0.0,1.0,88,0.00,,,0.00,weatherlink.com 1.10,2013-09-18 06:38:00,
2013-09-18 02:53:00,51.8,49.0,30.19,SSE,163,0.0,2.0,89,0.00,,,0.00,weatherlink.com 1.10,2013-09-18 06:53:00,
2013-09-18 03:08:00,51.7,49.0,30.19,SE,139,0.0,1.0,89,0.00,,,0.00,weatherlink.com 1.10,2013-09-18 07:08:00,
2013-09-18 03:23:00,51.6,49.0,30.18,WSW,249,1.0,3.0,90,0.00,,,0.00,weatherlink.com 1.10,2013-09-18 07:23:00,
2013-09-18 03:38:00,51.7,49.0,30.18,South,177,0.0,1.0,90,0.00,,,0.00,weatherlink.com 1.10,2013-09-18 07:38:00,
2013-09-18 03:53:00,51.7,49.0,30.18,South,171,0.0,2.0,89,0.00,,,0.00,weatherlink.com 1.10,2013-09-18 07:53:00,
2013-09-18 04:08:00,51.5,49.0,30.18,SSW,210,0.0,2.0,90,0.00,,,0.00,weatherlink.com 1.10,2013-09-18 08:08:00,
2013-09-18 04:23:00,51.3,49.0,30.18,SE,138,0.0,1.0,91,0.00,,,0.00,weatherlink.com 1.10,2013-09-18 08:23:00,
2013-09-18 04:38:00,51.3,49.0,30.17,SE,136,0.0,1.0,91,0.00,,,0.00,weatherlink.com 1.10,2013-09-18 08:38:00,
2013-09-18 04:53:00,51.4,49.0,30.18,WNW,296,0.0,1.0,92,0.00,,,0.00,weatherlink.com 1.10,2013-09-18 08:53:00,
2013-09-18 05:08:00,51.5,49.0,30.18,SE,135,0.0,2.0,91,0.00,,,0.00,weatherlink.com 1.10,2013-09-18 09:08:00,
2013-09-18 05:23:00,51.3,49.0,30.18,SE,136,0.0,0.0,92,0.00,,,0.00,weatherlink.com 1.10,2013-09-18 09:23:00,
2013-09-18 05:38:00,51.1,49.0,30.17,SE,135,0.0,0.0,92,0.00,,,0.00,weatherlink.com 1.10,2013-09-18 09:38:00,
2013-09-18 05:53:00,50.8,49.0,30.17,SE,136,0.0,0.0,93,0.00,,,0.00,weatherlink.com 1.10,2013-09-18 09:53:00,
2013-09-18 06:08:00,50.7,49.0,30.17,SE,135,0.0,0.0,94,0.00,,,0.00,weatherlink.com 1.10,2013-09-18 10:08:00,
2013-09-18 06:23:00,50.6,49.0,30.17,SE,135,0.0,0.0,94,0.00,,,0.00,weatherlink.com 1.10,2013-09-18 10:23:00,
2013-09-18 06:38:00,50.5,49.0,30.17,SE,136,0.0,0.0,95,0.00,,,0.00,weatherlink.com 1.10,2013-09-18 10:38:00,
2013-09-18 06:53:00,50.5,49.0,30.17,ESE,111,0.0,1.0,95,0.00,,,0.00,weatherlink.com 1.10,2013-09-18 10:53:00,
2013-09-18 07:08:00,50.5,49.0,30.17,SE,135,0.0,0.0,95,0.00,,,0.00,weatherlink.com 1.10,2013-09-18 11:08:00,
2013-09-18 07:23:00,50.3,49.0,30.17,East,94,0.0,1.0,95,0.00,,,0.00,weatherlink.com 1.10,2013-09-18 11:23:00,
2013-09-18 07:38:00,50.2,49.0,30.17,ESE,112,0.0,1.0,95,0.00,,,0.00,weatherlink.com 1.10,2013-09-18 11:38:00,
2013-09-18 07:53:00,50.2,49.0,30.17,SE,141,0.0,1.0,96,0.00,,,0.00,weatherlink.com 1.10,2013-09-18 11:53:00,
2013-09-18 08:08:00,50.8,50.0,30.17,SE,143,0.0,1.0,96,0.00,,,0.00,weatherlink.com 1.10,2013-09-18 12:08:00,
2013-09-18 08:23:00,52.7,51.0,30.17,SSW,208,0.0,4.0,93,0.00,,,0.00,weatherlink.com 1.10,2013-09-18 12:23:00,
2013-09-18 08:38:00,54.1,52.0,30.17,SE,125,1.0,3.0,91,0.00,,,0.00,weatherlink.com 1.10,2013-09-18 12:38:00,
2013-09-18 08:54:00,55.3,52.0,30.17,ESE,121,2.0,3.0,89,0.00,,,0.00,weatherlink.com 1.10,2013-09-18 12:54:00,
2013-09-18 09:09:00,56.9,53.0,30.17,SE,130,1.0,5.0,88,0.00,,,0.00,weatherlink.com 1.10,2013-09-18 13:09:00,
2013-09-18 09:24:00,58.9,54.0,30.16,West,276,0.0,4.0,85,0.00,,,0.00,weatherlink.com 1.10,2013-09-18 13:24:00,
2013-09-18 09:39:00,59.1,55.0,30.17,SE,127,0.0,3.0,85,0.00,,,0.00,weatherlink.com 1.10,2013-09-18 13:39:00,
2013-09-18 09:54:00,59.3,55.0,30.17,SSW,210,2.0,4.0,86,0.00,,,0.00,weatherlink.com 1.10,2013-09-18 13:54:00,
2013-09-18 10:09:00,59.7,56.0,30.17,SSE,163,0.0,3.0,86,0.00,,,0.00,weatherlink.com 1.10,2013-09-18 14:09:00,
2013-09-18 10:24:00,60.1,56.0,30.17,SE,132,1.0,3.0,85,0.00,,,0.00,weatherlink.com 1.10,2013-09-18 14:24:00,
2013-09-18 10:39:00,60.9,56.0,30.17,South,191,0.0,4.0,84,0.00,,,0.00,weatherlink.com 1.10,2013-09-18 14:39:00,
2013-09-18 10:54:00,62.0,56.0,30.17,SE,131,0.0,3.0,82,0.00,,,0.00,weatherlink.com 1.10,2013-09-18 14:54:00,
2013-09-18 11:09:00,63.5,57.0,30.16,SSE,155,1.0,4.0,80,0.00,,,0.00,weatherlink.com 1.10,2013-09-18 15:09:00,
2013-09-18 11:24:00,65.6,58.0,30.15,WSW,238,2.0,3.0,76,0.00,,,0.00,weatherlink.com 1.10,2013-09-18 15:24:00,
2013-09-18 11:39:00,67.8,59.0,30.15,East,79,1.0,4.0,73,0.00,,,0.00,weatherlink.com 1.10,2013-09-18 15:39:00,
2013-09-18 11:54:00,68.4,58.0,30.15,ESE,122,4.0,5.0,70,0.00,,,0.00,weatherlink.com 1.10,2013-09-18 15:54:00,
2013-09-18 12:09:00,70.6,59.0,30.14,South,191,0.0,4.0,67,0.00,,,0.00,weatherlink.com 1.10,2013-09-18 16:09:00,
2013-09-18 12:24:00,71.2,59.0,30.13,SW,218,0.0,4.0,65,0.00,,,0.00,weatherlink.com 1.10,2013-09-18 16:24:00,
2013-09-18 12:39:00,72.3,58.0,30.13,SSE,153,1.0,4.0,62,0.00,,,0.00,weatherlink.com 1.10,2013-09-18 16:39:00,
2013-09-18 12:54:00,73.5,59.0,30.12,East,94,4.0,6.0,61,0.00,,,0.00,weatherlink.com 1.10,2013-09-18 16:54:00,
2013-09-18 13:09:00,74.1,57.0,30.12,SSE,165,2.0,5.0,56,0.00,,,0.00,weatherlink.com 1.10,2013-09-18 17:09:00,
2013-09-18 13:24:00,74.1,57.0,30.12,WNW,288,2.0,7.0,55,0.00,,,0.00,weatherlink.com 1.10,2013-09-18 17:24:00,
2013-09-18 13:39:00,74.4,57.0,30.12,WNW,290,1.0,4.0,55,0.00,,,0.00,weatherlink.com 1.10,2013-09-18 17:39:00,
2013-09-18 13:55:00,74.8,57.0,30.11,WNW,288,1.0,4.0,55,0.00,,,0.00,weatherlink.com 1.10,2013-09-18 17:55:00,
2013-09-18 14:10:00,75.5,57.0,30.10,ESE,105,3.0,5.0,53,0.00,,,0.00,weatherlink.com 1.10,2013-09-18 18:10:00,
2013-09-18 14:25:00,76.9,58.0,30.09,NE,47,1.0,3.0,53,0.00,,,0.00,weatherlink.com 1.10,2013-09-18 18:25:00,
2013-09-18 14:40:00,77.6,56.0,30.09,SSE,162,1.0,8.0,48,0.00,,,0.00,weatherlink.com 1.10,2013-09-18 18:40:00,
2013-09-18 14:55:00,78.0,54.0,30.09,ESE,104,1.0,8.0,43,0.00,,,0.00,weatherlink.com 1.10,2013-09-18 18:55:00,
2013-09-18 15:10:00,78.6,53.0,30.08,ESE,113,1.0,6.0,41,0.00,,,0.00,weatherlink.com 1.10,2013-09-18 19:10:00,
2013-09-18 15:25:00,79.1,54.0,30.07,ESE,117,0.0,6.0,42,0.00,,,0.00,weatherlink.com 1.10,2013-09-18 19:25:00,
2013-09-18 15:40:00,78.6,54.0,30.07,SW,231,1.0,6.0,42,0.00,,,0.00,weatherlink.com 1.10,2013-09-18 19:40:00,
2013-09-18 15:55:00,79.2,57.0,30.05,ESE,120,1.0,6.0,47,0.00,,,0.00,weatherlink.com 1.10,2013-09-18 19:55:00,
2013-09-18 16:10:00,79.3,55.0,30.05,SSE,150,1.0,5.0,43,0.00,,,0.00,weatherlink.com 1.10,2013-09-18 20:10:00,
2013-09-18 16:25:00,80.0,56.0,30.04,SSE,163,2.0,5.0,44,0.00,,,0.00,weatherlink.com 1.10,2013-09-18 20:25:00,
2013-09-18 16:40:00,79.8,55.0,30.03,South,172,1.0,4.0,43,0.00,,,0.00,weatherlink.com 1.10,2013-09-18 20:40:00,
2013-09-18 17:11:00,77.9,54.0,30.03,ESE,123,0.0,5.0,44,0.00,,,0.00,weatherlink.com 1.10,2013-09-18 21:11:00,
2013-09-18 17:25:00,76.6,56.0,30.04,WNW,283,0.0,3.0,49,0.00,,,0.00,weatherlink.com 1.10,2013-09-18 21:25:00,
2013-09-18 17:40:00,75.6,59.0,30.04,WNW,283,0.0,0.0,56,0.00,,,0.00,weatherlink.com 1.10,2013-09-18 21:40:00,
2013-09-18 17:55:00,75.8,57.0,30.03,SSW,208,0.0,3.0,52,0.00,,,0.00,weatherlink.com 1.10,2013-09-18 21:55:00,
2013-09-18 18:10:00,75.5,58.0,30.03,ESE,120,1.0,4.0,54,0.00,,,0.00,weatherlink.com 1.10,2013-09-18 22:10:00,
2013-09-18 18:25:00,75.1,59.0,30.03,SE,127,0.0,4.0,58,0.00,,,0.00,weatherlink.com 1.10,2013-09-18 22:25:00,
2013-09-18 18:40:00,74.6,60.0,30.03,SE,134,1.0,2.0,60,0.00,,,0.00,weatherlink.com 1.10,2013-09-18 22:40:00,
2013-09-18 18:55:00,73.1,60.0,30.02,ESE,112,0.0,1.0,64,0.00,,,0.00,weatherlink.com 1.10,2013-09-18 22:55:00,
2013-09-18 19:10:00,71.4,61.0,30.02,ESE,112,0.0,0.0,69,0.00,,,0.00,weatherlink.com 1.10,2013-09-18 23:10:00,
2013-09-18 19:25:00,69.6,62.0,30.02,ESE,112,0.0,0.0,76,0.00,,,0.00,weatherlink.com 1.10,2013-09-18 23:25:00,
2013-09-18 19:40:00,68.1,61.0,30.02,ESE,112,0.0,0.0,79,0.00,,,0.00,weatherlink.com 1.10,2013-09-18 23:40:00,
2013-09-18 19:55:00,66.6,60.0,30.01,ENE,67,0.0,1.0,79,0.00,,,0.00,weatherlink.com 1.10,2013-09-18 23:55:00,
2013-09-18 20:25:00,65.9,60.0,30.02,ENE,67,0.0,1.0,80,0.00,,,0.00,weatherlink.com 1.10,2013-09-19 00:25:00,
2013-09-18 20:40:00,65.7,59.0,30.02,ESE,122,0.0,1.0,78,0.00,,,0.00,weatherlink.com 1.10,2013-09-19 00:40:00,
2013-09-18 20:55:00,65.4,58.0,30.02,ESE,122,0.0,1.0,78,0.00,,,0.00,weatherlink.com 1.10,2013-09-19 00:55:00,
2013-09-18 21:10:00,65.5,58.0,30.02,SE,134,0.0,0.0,78,0.00,,,0.00,weatherlink.com 1.10,2013-09-19 01:10:00,
2013-09-18 21:25:00,65.1,60.0,30.02,SE,129,0.0,0.0,82,0.00,,,0.00,weatherlink.com 1.10,2013-09-19 01:25:00,
2013-09-18 21:40:00,64.2,59.0,30.02,SE,129,0.0,0.0,84,0.00,,,0.00,weatherlink.com 1.10,2013-09-19 01:40:00,
2013-09-18 21:55:00,63.4,59.0,30.02,SE,130,0.0,0.0,85,0.00,,,0.00,weatherlink.com 1.10,2013-09-19 01:55:00,
2013-09-18 22:10:00,62.8,59.0,30.02,SE,129,0.0,0.0,88,0.00,,,0.00,weatherlink.com 1.10,2013-09-19 02:10:00,
2013-09-18 22:25:00,63.3,59.0,30.03,East,80,0.0,1.0,87,0.00,,,0.00,weatherlink.com 1.10,2013-09-19 02:25:00,
2013-09-18 22:40:00,63.6,59.0,30.03,NE,49,0.0,0.0,86,0.00,,,0.00,weatherlink.com 1.10,2013-09-19 02:40:00,
2013-09-18 22:55:00,62.9,59.0,30.03,NE,49,0.0,0.0,88,0.00,,,0.00,weatherlink.com 1.10,2013-09-19 02:55:00,
2013-09-18 23:11:00,62.5,59.0,30.03,NE,50,0.0,0.0,89,0.00,,,0.00,weatherlink.com 1.10,2013-09-19 03:11:00,
2013-09-18 23:25:00,62.3,59.0,30.03,NE,50,0.0,1.0,89,0.00,,,0.00,weatherlink.com 1.10,2013-09-19 03:25:00,
2013-09-18 23:41:00,63.5,58.0,30.03,East,100,0.0,1.0,83,0.00,,,0.00,weatherlink.com 1.10,2013-09-19 03:41:00,
2013-09-18 23:55:00,63.2,59.0,30.02,East,101,0.0,0.0,86,0.00,,,0.00,weatherlink.com 1.10,2013-09-19 03:55:00,